| time (UTC) | temp C | wind direction | speed KPH | gust KPH | rain 1hr cm | rain 24hr cm | rain mn cm | humidity % | barometer mb |
| 20260504081502 | 13 | 184 | 8.0 | 24.1 | 0.00 | 0.00 | 0.00 | 41 | 998.4 |
| 20260504080106 | 13 | 180 | 12.9 | 29.0 | 0.00 | 0.00 | 0.00 | 41 | 998.7 |
| 20260504044537 | 13 | 181 | 3.2 | 16.1 | 0.00 | 0.00 | 0.00 | 42 | 1002.4 |
| 20260504043033 | 13 | 177 | 4.8 | 16.1 | 0.00 | 0.00 | 0.00 | 42 | 1002.7 |
| 20260504041529 | 13 | 174 | 1.6 | 11.3 | 0.00 | 0.00 | 0.00 | 42 | 1003.1 |
| 20260504040027 | 13 | 174 | 0.0 | 9.7 | 0.00 | 0.00 | 0.00 | 42 | 1003.4 |
| 20260504034524 | 13 | 223 | 1.6 | 6.4 | 0.00 | 0.00 | 0.00 | 42 | 1003.8 |
| 20260504033020 | 13 | 227 | 0.0 | 3.2 | 0.00 | 0.00 | 0.00 | 41 | 1004.0 |
| 20260504031523 | 14 | 227 | 0.0 | 3.2 | 0.00 | 0.00 | 0.00 | 39 | 1004.4 |
| 20260504030016 | 15 | 227 | 0.0 | 1.6 | 0.00 | 0.00 | 0.00 | 37 | 1004.4 |
| 20260504024517 | 15 | 227 | 0.0 | 1.6 | 0.00 | 0.00 | 0.00 | 35 | 1004.6 |
| 20260504023012 | 16 | 227 | 0.0 | 4.8 | 0.00 | 0.00 | 0.00 | 34 | 1004.8 |
| 20260504021510 | 16 | 190 | 1.6 | 14.5 | 0.00 | 0.00 | 0.00 | 32 | 1004.8 |
| 20260504020009 | 16 | 219 | 0.0 | 6.4 | 0.00 | 0.00 | 0.00 | 31 | 1004.8 |
| 20260504014510 | 17 | 223 | 0.0 | 6.4 | 0.00 | 0.00 | 0.00 | 29 | 1004.8 |
| 20260504013007 | 17 | 225 | 0.0 | 11.3 | 0.00 | 0.00 | 0.00 | 28 | 1004.8 |
| 20260504011506 | 18 | 232 | 0.0 | 14.5 | 0.00 | 0.00 | 0.00 | 28 | 1004.9 |
| 20260504010005 | 18 | 215 | 3.2 | 16.1 | 0.00 | 0.00 | 0.00 | 26 | 1004.9 |
| 20260504004505 | 19 | 238 | 6.4 | 19.3 | 0.00 | 0.00 | 0.00 | 26 | 1005.0 |
| 20260504003001 | 19 | 212 | 11.3 | 37.0 | 0.00 | 0.00 | 0.00 | 25 | 1005.1 |
| 20260504001600 | 20 | 225 | 8.0 | 32.2 | 0.00 | 0.00 | 0.00 | 25 | 1005.1 |
| 20260504001501 | 20 | 258 | 12.9 | 32.2 | 0.00 | 0.00 | 0.00 | 25 | 1005.1 |
| 20260504000138 | 20 | 186 | 3.2 | 32.2 | 0.00 | 0.00 | 0.00 | 26 | 1005.3 |
| 20260503234602 | 20 | 220 | 12.9 | 25.7 | 0.00 | 0.00 | 0.00 | 24 | 1005.3 |
| 20260503233054 | 20 | 211 | 12.9 | 24.1 | 0.00 | 0.00 | 0.00 | 23 | 1005.3 |
| 20260503231553 | 21 | 257 | 8.0 | 25.7 | 0.00 | 0.00 | 0.00 | 23 | 1005.5 |
| 20260503230052 | 21 | 249 | 8.0 | 25.7 | 0.00 | 0.00 | 0.00 | 23 | 1005.5 |
| 20260503224550 | 21 | 272 | 3.2 | 37.0 | 0.00 | 0.00 | 0.00 | 23 | 1005.8 |
| 20260503223049 | 21 | 242 | 12.9 | 30.6 | 0.00 | 0.00 | 0.00 | 22 | 1005.7 |
| 20260503221554 | 21 | 193 | 6.4 | 25.7 | 0.00 | 0.00 | 0.00 | 22 | 1005.9 |
| 20260503220047 | 21 | 234 | 1.6 | 25.7 | 0.00 | 0.00 | 0.00 | 23 | 1005.9 |
| 20260503214546 | 21 | 234 | 4.8 | 27.4 | 0.00 | 0.00 | 0.00 | 23 | 1006.2 |
| 20260503213015 | 21 | 326 | 12.9 | 43.5 | 0.00 | 0.00 | 0.00 | 23 | 1006.4 |
| 20260503211516 | 20 | 220 | 8.0 | 29.0 | 0.00 | 0.00 | 0.00 | 24 | 1006.5 |
| 20260503210011 | 20 | 268 | 14.5 | 30.6 | 0.00 | 0.00 | 0.00 | 23 | 1006.8 |
| 20260503204510 | 20 | 5 | 9.7 | 33.8 | 0.00 | 0.00 | 0.00 | 25 | 1006.9 |
| 20260503203018 | 20 | 256 | 8.0 | 30.6 | 0.00 | 0.00 | 0.00 | 22 | 1007.0 |
| 20260503201508 | 20 | 298 | 4.8 | 37.0 | 0.00 | 0.00 | 0.00 | 24 | 1007.0 |
| 20260503200003 | 20 | 355 | 4.8 | 27.4 | 0.00 | 0.00 | 0.00 | 23 | 1007.2 |
| 20260503194502 | 20 | 328 | 9.7 | 32.2 | 0.00 | 0.00 | 0.00 | 25 | 1007.3 |
| 20260503193100 | 20 | 302 | 4.8 | 33.8 | 0.00 | 0.00 | 0.00 | 26 | 1007.3 |
| 20260503191609 | 20 | 215 | 14.5 | 48.3 | 0.00 | 0.00 | 0.00 | 27 | 1007.6 |
| 20260503190158 | 20 | 323 | 11.3 | 41.8 | 0.00 | 0.00 | 0.00 | 27 | 1007.6 |
| 20260503184556 | 20 | 311 | 11.3 | 45.1 | 0.00 | 0.00 | 0.00 | 28 | 1007.7 |
| 20260503183054 | 19 | 286 | 9.7 | 40.2 | 0.00 | 0.00 | 0.00 | 27 | 1007.8 |
| 20260503181602 | 19 | 360 | 11.3 | 27.4 | 0.00 | 0.00 | 0.00 | 32 | 1007.9 |
| 20260503180049 | 19 | 343 | 16.1 | 32.2 | 0.00 | 0.00 | 0.00 | 34 | 1008.0 |
| 20260503174546 | 18 | 355 | 9.7 | 46.7 | 0.00 | 0.00 | 0.00 | 35 | 1007.9 |
| 20260503173055 | 18 | 320 | 9.7 | 33.8 | 0.00 | 0.00 | 0.00 | 34 | 1008.0 |
| 20260503171544 | 18 | 255 | 14.5 | 30.6 | 0.00 | 0.00 | 0.00 | 36 | 1008.2 |